{"data":{"norad_id":62128,"epoch":"2026-05-25T04:03:34.189344Z","epoch_age_seconds":60406,"freshness":"FRESH","line1":"1 62128U 24222Q   26145.16914571  .00026726  00000+0  97626-3 0  9998","line2":"2 62128  43.0044  64.4273 0001805 281.0985  78.9664 15.27611142 84180","mean_motion":15.27611142,"eccentricity":0.0001805,"inclination_deg":43.0044,"raan_deg":64.4273,"arg_perigee_deg":281.0985,"mean_anomaly_deg":78.9664,"bstar":0.00097626,"rev_number":8418,"period_min":94.264826984353,"perigee_km":481.71742001362,"apogee_km":484.19427453149,"semimajor_km":6861.0928472726,"source":"CELESTRAK","updated_at":"2026-05-25T13:38:19.565580Z"}}